Location: Audruicq
(50.8780°N, 2.0797°E)
Time: 10:18:26
(UTC+00:00)

Daily predictions for brighter satellites

Satellite Brightness Start Highest point End
(mag) Time Altitude Azimuth Time Altitude Azimuth Time Altitude Azimuth
STARLINK-1072 3.7 18:45:37 10° WNW 18:49:36 70° SSW 18:53:35 10° ESE
Cosmos 1892 Rocket 3.6 18:45:35 10° N 18:50:05 72° E 18:54:33 10° SSE
Cosmos 1626 Rocket 4.5 18:47:37 10° N 18:51:32 30° ENE 18:55:23 10° SE
SL-16 R/B 3.0 18:47:21 10° SSE 18:52:05 28° ESE 18:56:50 10° NE
Cosmos 2333 Rocket 3.1 18:46:38 10° SW 18:52:12 54° NW 18:57:47 10° NNE
STARLINK-1103 3.8 18:49:19 10° WNW 18:53:27 69° N 18:57:36 10° E
STARLINK-1096 3.8 18:50:04 10° WNW 18:54:03 67° SSW 18:58:01 10° ESE
Cosmos 1626 2.7 18:51:06 10° N 18:54:36 37° ENE 18:58:04 10° SE
STARLINK-1234 3.4 18:52:12 10° SW 18:55:01 38° SSE 18:57:49 10° E
USA 186 2.3 18:52:10 10° SE 18:55:27 44° ENE 18:58:42 10° N
CSL-04 Rocket 4.5 18:50:52 10° S 18:56:04 56° WSW 19:01:18 10° NNW
Cosmos 1953 4.3 18:55:10 10° E 18:56:21 11° E 18:57:33 10° ENE
ARGOS Delta rocket 4.1 18:51:29 10° SSE 18:56:34 69° ENE 19:01:56 10° N
Okean 1-7 Rocket 3.5 18:53:35 10° N 18:58:00 74° ENE 19:02:23 10° SSE
NOSS 2-1 (E) 3.0 18:54:38 10° SW 18:58:01 85° SE 19:01:55 10° NE
STARLINK-1101 3.8 18:54:19 10° WNW 18:58:27 70° N 19:02:36 10° E
STARLINK-1079 3.8 18:54:33 10° WNW 18:58:31 64° SSW 19:02:28 10° SE
STARLINK-1236 4.5 18:57:39 10° SSW 19:01:12 30° SE 19:04:45 10° E
ATLAS 2AS CENTAUR R/B 4.0 18:55:34 10° NW 19:02:43 35° NNE 19:09:26 10° E
STARLINK-1116 3.9 18:59:01 10° WNW 19:02:59 60° SSW 19:06:56 10° SE
STARLINK-1102 3.8 18:59:17 10° WNW 19:03:26 72° N 19:07:32 10° E
SJ-11-01 4.4 19:01:41 10° SSE 19:06:23 86° WSW 19:11:09 10° NNW
H-2A R/B 2.1 19:02:08 10° SSE 19:07:26 75° ENE 19:12:36 10° NNW
Aureole 2 Rocket 4.2 19:05:51 10° N 19:08:19 18° NE 19:10:31 11° E
STARLINK-1111 3.7 19:04:16 10° WNW 19:08:25 74° NNE 19:12:19 12° E
STARLINK-1269 4.3 19:06:53 10° SSW 19:10:33 34° SE 19:14:13 10° E
STARLINK-1094 4.0 19:08:00 10° WNW 19:11:56 54° SSW 19:15:46 11° SE
Cosmos 1745 Rocket 4.3 19:05:42 10° NNW 19:12:02 77° W 19:18:16 10° S
ERBS 2.5 19:09:04 10° WSW 19:12:26 73° NNW 19:15:50 10° ENE
STARLINK-1073 3.7 19:09:15 10° WNW 19:13:24 76° NNE 19:17:06 13° E
Cosmos 1544 Rocket 3.8 19:09:13 10° SSE 19:13:28 50° E 19:17:46 10° NNE
Cosmos 2297 3.7 19:08:14 10° NNW 19:13:56 82° ENE 19:19:39 10° SSE
USA 234 3.7 19:09:05 10° ENE 19:15:08 38° SE 19:21:09 10° SSW
STARLINK-1200 4.2 19:11:30 10° SSW 19:15:13 36° SE 19:18:57 10° ENE
NOSS 0 Rocket 4.2 19:09:50 10° SW 19:16:03 76° NW 19:22:16 10° NNE
STARLINK-1117 4.1 19:12:32 10° WNW 19:16:26 51° SSW 19:20:06 11° SE
Meteor 2-5 Rocket 4.3 19:11:49 10° NNW 19:17:27 63° W 19:22:56 10° S
STARLINK-1121 3.7 19:14:15 10° WNW 19:18:24 78° NNE 19:21:53 14° E
ADEOS Rocket 3.8 19:12:56 10° N 19:19:49 62° WNW 19:25:58 10° SW
STARLINK-1192 4.1 19:16:04 10° SW 19:19:50 38° SE 19:23:25 11° ENE
STARLINK-1078 4.2 19:17:02 10° WNW 19:20:56 48° SSW 19:24:26 12° SE
Cosmos 2237 Rocket 2.4 19:16:24 10° SSW 19:22:02 79° WNW 19:27:43 10° NNE
Cosmos 1805 3.8 19:18:11 10° SSW 19:22:04 64° WNW 19:25:59 10° N
STARLINK-1106 3.6 19:19:13 10° WNW 19:23:22 80° NNE 19:26:39 16° ESE
Cosmos 1302 Rocket 4.0 19:18:27 10° NNW 19:23:45 77° ENE 19:29:02 10° SSE
STARLINK-1244 4.0 19:20:48 10° SW 19:24:37 41° SSE 19:28:01 12° ENE
STARLINK-1201 3.2 19:21:44 10° SW 19:24:54 51° SSE 19:27:31 14° ENE
STARLINK-1108 4.3 19:21:34 10° WNW 19:25:26 46° SSW 19:28:47 13° SE
Cosmos 2278 Rocket 4.1 19:20:58 10° NW 19:25:50 30° WSW 19:30:40 10° SSW
CZ-2C R/B 3.4 19:22:26 10° NE 19:26:50 27° E 19:31:12 10° SSE
STARLINK-1112 3.6 19:24:12 10° WNW 19:28:22 83° NNE 19:31:27 18° ESE
STARLINK-1138 3.9 19:25:26 10° SW 19:29:17 43° SSE 19:32:32 14° E
Cosmos 1269 Rocket 4.0 19:24:13 10° S 19:29:26 65° ESE 19:34:42 10° NNE
STARLINK-1071 4.4 19:26:06 10° WNW 19:29:56 43° SSW 19:33:08 14° SE
STARLINK-1209 2.6 19:27:19 10° WSW 19:30:12 68° SSE 19:32:14 17° ENE
STARLINK-1124 4.4 19:26:59 10° WNW 19:30:56 43° SSW 19:34:14 14° SE
STARLINK-1228 2.6 19:28:18 10° WSW 19:31:10 69° SSE 19:33:09 18° ENE
SeaSat 1 4.2 19:28:12 10° NNE 19:32:41 36° NW 19:37:09 10° WSW
Meteor 1-24 Rocket 4.2 19:27:17 10° NNW 19:32:48 62° W 19:38:06 10° S
STARLINK-1128 3.6 19:29:12 10° WNW 19:33:22 86° NNE 19:36:15 19° ESE
STARLINK-1143 3.9 19:30:10 10° SW 19:34:03 46° SSE 19:37:08 15° E
STARLINK-1110 4.5 19:30:38 10° WNW 19:34:26 41° SSW 19:37:29 15° SSE
SL-8 R/B 3.8 19:29:50 10° W 19:34:34 67° S 19:38:02 18° E
ARGOS 3.3 19:30:09 10° SSE 19:35:34 79° WSW 19:41:00 10° NNW
SL-24 R/B 4.4 19:32:18 10° NNE 19:36:52 44° E 19:40:50 10° S
STARLINK-1113 3.6 19:34:11 10° WNW 19:38:21 89° NNE 19:41:02 21° ESE
Cosmos 1470 2.7 19:38:28 10° S 19:42:17 60° E 19:46:08 10° NNE
STARLINK-1119 3.6 19:39:09 10° WNW 19:43:20 88° S 19:45:48 23° ESE
STARLINK-1241 3.7 19:40:32 10° SW 19:44:26 53° SSE 19:47:06 19° E
STARLINK-1233 2.8 19:41:30 10° WSW 19:44:38 69° SSE 19:46:21 24° ENE
STARLINK-1212 2.8 19:41:58 10° WSW 19:45:04 69° SSE 19:46:46 24° ENE
STARLINK-1105 2.8 19:42:24 10° WSW 19:45:32 70° SSE 19:47:13 24° ENE
STARLINK-1206 2.8 19:42:54 10° WSW 19:46:00 70° SSE 19:47:38 25° ENE
STARLINK-1247 2.8 19:43:20 10° WSW 19:46:26 71° SSE 19:48:03 26° ENE
ISS -3.8 19:43:13 10° WNW 19:46:35 89° SSW 19:48:11 29° ESE
Cosmos 2315 Rocket 4.0 19:40:19 10° S 19:46:37 78° E 19:53:00 10° NNE
SL-08 RB Rocket 3.8 19:42:10 10° SSE 19:46:41 81° WSW 19:51:17 10° NNW
STARLINK-1227 2.8 19:43:44 10° WSW 19:46:51 71° SSE 19:48:30 25° ENE
ATLAS CENTAUR R/B 4.1 19:44:24 10° NW 19:46:59 15° NNW 19:49:28 10° NNE
STARLINK-1218 2.7 19:44:14 10° WSW 19:47:21 71° SSE 19:48:55 26° ENE
STARLINK-1226 2.8 19:44:41 10° WSW 19:47:48 72° SSE 19:49:23 26° ENE
SJ-6B 3.4 19:43:47 10° S 19:47:49 63° W 19:51:56 10° NNW
STARLINK-1254 2.8 19:45:05 10° WSW 19:48:13 72° SSE 19:49:48 26° ENE
MetOp-A 4.1 19:42:58 10° SSE 19:48:19 80° ENE 19:53:42 10° NNW
STARLINK-1114 3.6 19:44:09 10° WNW 19:48:20 85° SSW 19:50:36 26° ESE
Resurs 1-3 3.5 19:44:43 13° SSE 19:48:34 70° ENE 19:52:58 10° N
STARLINK-1215 2.7 19:45:35 10° WSW 19:48:41 73° SSE 19:50:14 27° ENE
STARLINK-1239 3.6 19:45:05 10° SW 19:49:01 56° SSE 19:51:31 21° E
STARLINK-1231 2.7 19:46:01 10° WSW 19:49:08 73° SSE 19:50:39 27° ENE
STARLINK-1232 2.7 19:46:56 10° WSW 19:50:03 74° SSE 19:51:31 28° ENE
Cosmos 1758 3.3 19:46:08 10° S 19:50:11 68° E 19:54:17 10° NNE
STARLINK-1217 2.7 19:47:23 10° WSW 19:50:30 74° SSE 19:51:58 28° ENE
ERS-1 Rocket 4.5 19:48:48 17° E 19:50:37 20° ENE 19:54:14 10° N
STARLINK-1208 2.7 19:47:48 10° WSW 19:50:56 75° SSE 19:52:25 28° ENE
STARLINK-1229 2.7 19:48:16 10° WSW 19:51:23 75° SSE 19:52:48 29° ENE
IRIDIUM 104 4.3 19:46:19 10° N 19:51:31 63° E 19:56:26 11° SSE
BREEZE-M DEB (TANK) 3.7 19:44:04 10° W 19:51:32 74° SSW 19:53:09 29° ESE
STARLINK-1271 2.7 19:48:44 10° WSW 19:51:51 76° SSE 19:53:16 29° ENE
STARLINK-1270 2.7 19:49:12 10° WSW 19:52:18 76° SSE 19:53:42 30° ENE
STARLINK-1154 2.7 19:49:38 10° WSW 19:52:44 76° SSE 19:54:07 30° ENE
STARLINK-1130 (DARKSAT) 3.6 19:49:07 10° WNW 19:53:16 82° SSW 19:55:22 28° ESE
STARLINK-1240 3.6 19:49:39 10° SW 19:53:36 59° SSE 19:55:56 23° E
STARLINK-1197 2.7 19:50:32 10° WSW 19:53:39 77° SSE 19:54:59 31° ENE
STARLINK-1189 2.7 19:50:59 10° WSW 19:54:05 78° SSE 19:55:26 31° ENE
CZ-2C R/B 3.8 19:49:23 10° S 19:54:18 52° W 19:59:04 10° NNW
Cosmos 2369 Rocket 2.3 19:48:39 10° NNW 19:54:20 60° NE 19:57:50 23° SE
STARLINK-1187 2.7 19:51:49 10° WSW 19:54:57 84° SSE 19:56:20 30° ENE
STARLINK-1188 2.7 19:51:53 10° WSW 19:55:00 79° SSE 19:56:17 32° ENE
STARLINK-1198 2.7 19:52:07 10° WSW 19:55:14 79° SSE 19:56:31 32° ENE
STARLINK-1235 2.8 19:52:30 10° WSW 19:55:39 90° S 19:57:05 30° ENE
Resurs 01 Rocket 1.7 19:53:05 21° SE 19:55:57 60° ENE 20:00:18 10° N
SPOT 5 4.4 19:56:05 15° ENE 19:56:56 16° ENE 19:59:38 10° NNE
STARLINK-1199 2.7 19:53:48 10° WSW 19:56:57 80° SSE 19:58:12 33° ENE
STARLINK-67 2.5 19:54:47 10° W 19:57:22 70° NNW 19:58:04 42° NE
STARLINK-1191 2.7 19:54:16 10° WSW 19:57:24 81° SSE 19:58:39 34° ENE
STARLINK-1210 2.7 19:54:42 10° WSW 19:57:51 81° SSE 19:59:04 34° ENE
STARLINK-1216 3.5 19:54:15 10° SW 19:58:13 62° SSE 20:00:23 25° E
STARLINK-1084 3.6 19:54:06 10° WNW 19:58:15 78° SSW 20:00:09 31° ESE
STARLINK-1221 2.7 19:55:10 10° WSW 19:58:19 82° SSE 19:59:32 34° ENE
STARLINK-1219 2.7 19:55:37 10° WSW 19:58:46 82° SSE 19:59:58 35° ENE
STARLINK-1222 2.7 19:56:04 10° WSW 19:59:12 82° SSE 20:00:23 35° ENE
STARLINK-1211 2.7 19:56:31 10° WSW 19:59:39 83° SSE 20:00:48 36° ENE
STARLINK-1214 2.7 19:56:58 10° WSW 20:00:07 83° SSE 20:01:15 36° ENE
STARLINK-1245 2.7 19:57:28 10° WSW 20:00:36 84° SSE 20:01:40 37° ENE
IRIDIUM 114 4.2 19:55:27 10° N 20:00:42 74° E 20:05:35 12° S
STARLINK-1238 2.7 19:57:53 10° WSW 20:01:01 84° SSE 20:02:07 37° ENE
STARLINK-1205 2.7 19:58:49 10° WSW 20:01:57 85° SSE 20:02:58 39° ENE
STARLINK-1204 2.7 19:59:15 10° WSW 20:02:22 85° SSE 20:03:23 40° ENE
Meteor 2-15 Rocket 4.3 19:56:34 10° S 20:02:38 74° E 20:08:42 10° NNE
STARLINK-1237 3.5 19:58:53 10° SW 20:02:53 65° SSE 20:04:52 28° E
STARLINK-1098 3.6 19:59:04 10° WNW 20:03:13 75° SSW 20:04:55 34° SE
SPOT 3 Rocket 3.9 20:01:21 10° S 20:06:33 69° WSW 20:11:47 10° NNW
Cosmos 1726 2.6 20:06:29 37° ESE 20:06:46 38° E 20:10:16 10° NNE
Meteor 1-21 Rocket 4.1 20:01:27 10° NNW 20:07:04 84° ENE 20:11:31 16° SSE
STARLINK-1202 3.4 20:03:29 10° WSW 20:07:29 69° SSE 20:09:19 30° E
STARLINK-1123 3.6 20:04:04 10° WNW 20:08:13 71° SSW 20:09:44 37° SE
Nadezhda 1 Rocket 4.5 20:06:17 22° SE 20:09:48 40° E 20:15:41 10° NNE
IRIDIUM 103 4.3 20:04:37 10° N 20:09:54 87° E 20:14:45 12° S
Cosmos 2228 3.8 20:11:03 31° E 20:11:03 31° E 20:14:52 10° NNE
CZ-4C R/B 4.2 20:06:39 10° WNW 20:11:42 28° N 20:17:34 10° NE
MOS 1 Rocket 3.5 20:06:53 10° NNE 20:12:02 65° E 20:17:23 10° S
STARLINK-1246 3.4 20:08:34 10° WSW 20:12:37 73° SSE 20:14:18 33° E
SAR-Lupe-2 4.4 20:09:39 10° NNE 20:12:22 33° ENE 20:12:22 33° ENE
STARLINK-1097 3.7 20:09:02 10° WNW 20:13:10 67° SSW 20:14:29 40° SE
Cosmos 292 Rocket 3.7 20:11:54 10° NNW 20:16:43 89° WSW 20:19:06 30° SSE
STARLINK-1099 3.7 20:14:02 10° WNW 20:18:08 64° SSW 20:19:17 43° SE
Cosmos 1943 3.8 20:19:28 31° ESE 20:19:29 31° ESE 20:24:26 10° NE
Cosmos 1943 Rocket 2.2 20:14:04 10° NNW 20:19:37 77° WSW 20:22:52 26° SSE
STARLINK-1224 3.4 20:17:24 10° WSW 20:21:27 79° SSE 20:22:45 41° ENE
NOSS 3-4 (A) 4.2 20:15:27 10° NW 20:22:01 51° NNE 20:25:57 26° E
NOSS 3-4 (C) 4.2 20:15:33 10° NW 20:22:06 50° NNE 20:26:03 26° E
Cosmos 2074 Rocket 3.9 20:15:53 10° N 20:22:11 85° E 20:26:45 20° S
STARLINK-1104 3.8 20:19:02 10° WNW 20:23:07 60° SSW 20:24:04 46° SSE
Cosmos 2058 Rocket 4.5 20:24:10 23° ENE 20:24:10 23° ENE 20:26:51 10° NNE
STARLINK-1225 3.4 20:22:07 10° WSW 20:26:09 83° SSE 20:27:17 46° ENE
Cosmos 1328 3.9 20:22:25 10° N 20:26:22 54° ENE 20:26:45 51° E
STARLINK-1203 3.3 20:23:47 10° WSW 20:27:44 87° SSE 20:28:44 49° ENE
STARLINK-1144 3.9 20:23:59 10° WNW 20:28:04 57° SSW 20:28:50 48° SSE
Cosmos 1437 2.7 20:25:49 10° N 20:28:32 66° N 20:28:32 66° N
STARLINK-1234 3.1 20:27:06 10° W 20:29:58 64° NNW 20:29:58 64° NNW
STARLINK-1230 3.4 20:26:45 10° WSW 20:30:48 86° SSE 20:31:44 52° ENE
Cosmos 1953 2.3 20:29:29 20° SSW 20:32:06 79° W 20:36:07 10° N
Meteor 2-10 4.0 20:28:33 16° S 20:32:50 74° E 20:38:23 10° NNE
STARLINK-1103 3.9 20:28:58 10° WNW 20:33:02 54° SSW 20:33:37 48° S
SPOT 1/Viking Rocket 3.8 20:32:06 40° ESE 20:33:27 51° ENE 20:38:30 10° N
NOSS 3-3 (A) 4.2 20:27:56 10° S 20:33:28 44° ESE 20:39:40 10° NE
NOSS 3-3 (C) 4.2 20:28:04 10° S 20:33:34 44° ESE 20:39:46 10° NE
Cosmos 2084 Rocket 3.9 20:29:40 10° NW 20:34:04 58° SW 20:35:19 42° S
Spot 2 Rocket 3.4 20:33:07 39° SSE 20:35:00 76° ENE 20:40:08 10° NNW
STARLINK-1243 3.4 20:31:27 10° WSW 20:35:30 89° SSE 20:36:16 58° ENE
SL-16 R/B 2.8 20:30:17 10° SW 20:35:51 59° NW 20:41:29 10° NNE
Cosmos 1610 Rocket 4.4 20:29:56 10° N 20:36:14 73° ENE 20:39:03 34° SSE
STARLINK-1101 3.9 20:33:59 10° WNW 20:38:00 50° SSW 20:38:25 48° S
STARLINK-1236 3.4 20:36:07 10° WSW 20:40:10 88° NNW 20:40:45 64° ENE
IGS 5A 3.5 20:42:14 59° E 20:42:22 59° ENE 20:46:29 10° N
Aureole 2 Rocket 3.0 20:38:59 10° NW 20:42:25 49° WSW 20:42:44 47° SW
Aureole 3 4.3 20:38:47 10° SSW 20:42:49 56° WNW 20:47:58 10° N
STARLINK-1102 4.0 20:38:58 10° WNW 20:42:57 47° SSW 20:43:11 47° SSW
DMSP B5D2-2 4.4 20:40:02 10° N 20:45:12 64° WNW 20:50:21 10° SSW
STARLINK-1111 4.2 20:43:57 10° WNW 20:47:54 44° SSW 20:47:58 44° SSW
ERBS 4.0 20:46:07 10° WNW 20:49:10 30° N 20:49:56 26° NNE
Terra 2.7 20:49:37 34° ENE 20:49:37 34° ENE 20:53:54 10° N
STARLINK-1269 3.5 20:45:33 10° WSW 20:49:36 82° NNW 20:49:49 78° NE
CARTOSAT-1 4.1 20:50:52 43° ENE 20:50:52 43° ENE 20:54:42 10° N
Cosmos 2341 Rocket 4.2 20:46:05 10° N 20:52:21 56° ENE 20:53:51 46° ESE
STARLINK-1073 4.3 20:48:57 10° WNW 20:52:45 42° SW 20:52:45 42° SW
Cosmos 1703 3.2 20:49:03 10° NNW 20:53:00 77° W 20:53:09 75° SW
STARLINK-1200 3.5 20:50:16 10° WSW 20:54:19 80° NNW 20:54:21 80° N
Cosmos 1726 Rocket 3.4 20:55:09 73° E 20:55:09 73° E 20:59:27 10° NNE
ATLAS 2AS CENTAUR R/B 2.9 20:47:14 10° NW 20:55:01 70° NE 20:57:41 42° ESE
Cosmos 1825 Rocket 4.1 20:52:10 10° NNW 20:56:31 54° W 20:57:49 39° SSW
Cosmos 1603 3.5 20:53:25 20° SSW 20:57:26 71° ESE 21:03:02 10° NNE
Meteor 1-16 Rocket 4.1 20:54:16 25° SSW 20:57:30 83° WNW 21:03:01 10° NNE
STARLINK-1121 4.5 20:53:57 10° WNW 20:57:32 39° SW 20:57:32 39° SW
USA 234 3.2 20:52:01 10° ENE 20:58:36 87° NNW 21:05:10 10° WSW
STARLINK-1192 3.6 20:54:55 10° WSW 20:58:49 76° NW 20:58:49 76° NW
STARLINK-1201 4.4 20:57:55 10° W 21:00:05 37° WNW 21:00:05 37° WNW
STARLINK-1244 3.7 20:59:43 10° W 21:03:26 69° WNW 21:03:26 69° WNW
CZ-2C R/B 3.4 21:02:23 10° N 21:07:25 50° WNW 21:12:23 10° SW
STARLINK-1138 3.9 21:04:26 10° W 21:07:58 62° WNW 21:07:58 62° WNW
Aureole 1 Rocket 4.4 21:07:14 46° SE 21:08:44 53° ESE 21:15:07 10° NNE
COSMOS 2455 3.4 21:04:08 10° NNW 21:09:56 46° NE 21:11:09 41° ENE
Meteor 1-11 4.3 21:04:45 10° NNW 21:10:35 78° W 21:12:06 51° S
Cosmos 1953 Rocket 4.0 21:07:49 10° NNW 21:12:10 55° W 21:12:43 51° SW
Iridium 4 Rocket 4.3 21:08:55 10° N 21:11:53 32° NE 21:11:53 32° NE
STARLINK-1143 4.1 21:09:14 10° W 21:12:34 56° WNW 21:12:34 56° WNW
Cosmos 1295 Rocket 4.5 21:08:42 10° NNW 21:14:58 83° W 21:16:48 49° S
Cosmos 1461 3.9 21:11:07 10° NNW 21:15:09 41° NNE 21:15:09 41° NNE
SL-8 R/B 4.4 21:12:16 10° W 21:16:00 42° SW 21:16:00 42° SW
Cosmos 2251 Rocket 4.0 21:13:08 10° SW 21:18:25 60° WNW 21:23:47 10° NNE
Cosmos 2218 Rocket 4.1 21:14:59 10° N 21:21:04 56° ENE 21:21:25 55° E
Cosmos 1606 Rocket 4.3 21:20:20 44° WSW 21:21:13 51° WNW 21:25:35 10° N
Cosmos 1656 Rocket 3.7 21:16:13 10° NNW 21:21:53 69° WSW 21:22:37 61° SSW
ISS -1.1 21:20:11 10° W 21:21:09 16° W 21:21:09 16° W
ATLAS CENTAUR R/B 4.1 21:25:42 10° NNW 21:27:32 13° N 21:29:15 10° NNE
ERS-1 Rocket 2.9 21:28:47 75° WSW 21:28:53 75° WSW 21:33:57 10° NNW
Resurs 01 Rocket 4.0 21:30:38 13° SW 21:32:50 18° W 21:35:53 10° NW
Cosmos 2181 Rocket 4.0 21:33:10 63° E 21:33:10 63° E 21:39:12 10° NNE
SPOT 5 3.1 21:35:19 59° NW 21:35:19 59° NW 21:38:56 10° NNW
In-Cosmos 22 Rocket 4.4 21:29:37 10° N 21:35:12 62° ENE 21:35:12 62° ENE
Cosmos 2369 Rocket 3.7 21:33:14 10° NW 21:38:00 28° WSW 21:39:39 24° SW
Cosmos 921 Rocket 4.2 21:43:24 10° NNW 21:46:08 39° NNW 21:46:08 39° NNW
SL-8 Rocket 4.0 21:49:54 10° NNW 21:56:11 75° W 21:56:35 72° SW
Cosmos 2058 Rocket 4.3 22:01:24 39° WNW 22:01:24 39° WNW 22:05:14 10° N
CZ-4C R/B 4.1 21:56:24 10° NW 22:02:08 32° NNE 22:06:33 18° ENE
Cosmos 864 Rocket 4.4 21:56:44 10° N 22:02:57 84° WNW 22:02:57 84° WNW
Cosmos 1943 3.8 22:01:06 34° WSW 22:03:17 54° NW 22:08:53 10° NNE
Cosmos 2366 rocket 3.9 21:57:15 10° NNW 22:03:18 81° WNW 22:03:18 81° WNW
Cosmos 1763 Rocket 4.5 22:03:14 10° NNW 22:07:11 40° NNE 22:07:11 40° NNE
Mayak 1.1 22:05:44 10° NNE 22:06:55 18° NNE 22:06:55 18° NNE
NOSS 3-4 (A) 4.0 22:06:24 10° NW 22:13:12 59° SW 22:13:24 59° SW
NOSS 3-4 (C) 4.0 22:06:30 10° NW 22:13:18 59° SW 22:13:29 59° SW
Cosmos 1697 Rocket 3.9 22:21:18 10° NNW 22:26:03 35° NE 22:26:03 35° NE
Terra 3.3 22:28:29 31° WNW 22:28:29 31° WNW 22:31:43 10° NNW
USA 234 3.8 22:35:02 10° ENE 22:41:22 55° N 22:47:43 10° W
ATLAS 2AS CENTAUR R/B 3.7 22:38:47 10° NW 22:45:08 37° WSW 22:45:08 37° WSW
Cosmos 1821 Rocket 4.3 22:41:32 10° N 22:46:52 66° N 22:46:52 66° N
Cosmos 1980 Rocket 3.6 22:46:23 10° NNW 22:50:54 31° NE 22:50:54 31° NE
COSMOS 2455 3.9 22:50:13 10° NW 22:54:18 37° WNW 22:54:18 37° WNW
ATLAS CENTAUR R/B 4.2 23:04:24 10° NNW 23:05:26 15° NNW 23:05:26 15° NNW
Cosmos 1934 Rocket 4.5 23:03:00 10° N 23:08:00 58° N 23:08:00 58° N
ATLAS 5 CENTAUR R/B 4.1 23:39:11 20° NNE 23:39:11 20° NNE 23:40:49 10° NE
Cosmos 1833 Rocket 4.3 23:45:09 27° NE 23:45:09 27° NE 23:47:45 10° NE
Mayak 1.6 23:42:18 10° NNW 23:43:29 14° NNW 23:43:29 14° NNW
CZ-4C R/B 3.0 23:45:01 10° NW 23:51:42 67° NNE 23:51:42 67° NNE
